COSMOS 1275

导读

COSMOS 1275是独联体(CIS)继承自苏联航天体系的卫星,于1981年6月4日发射升空。作为冷战时期苏联“宇宙”(COSMOS)系列卫星的成员,它主要服务于军事科研与空间技术验证领域,运行在近地轨道,体现了当时苏联在航天技术领域的发展水平,是冷战太空竞赛背景下苏联航天活动的重要见证。

基本信息
目录编号:
12504
目录名称:
COSMOS 1275
国际标识:
1981-053A
轨道中心:
EARTH
卫星名称:
COSMOS 1275
卫星全名:
--
卫星状态:
在轨 (已飞行16444 天)
发射日期:
1981-06-04 UTC
国别 :
俄罗斯(独联体) (CIS)
星等 :
--
轨道信息
数据来源 国际轨道数据 AOE轨道数据
星历时间 2026-06-12T15:09:21+0800
12小时前
查看轨道信息
2026-06-12T05:00:00+0800
22小时前
查看轨道信息
半长轴 7361.479km 7361.505km
偏心率 0.0039528 0.0038891
轨道倾角 82.960° 82.964°
近地点辐角 190.572° 193.308°
升交点赤经 269.065° 269.378°
平近点角 169.461° 233.936°
近地点 954.243km 954.738km
远地点 1012.441km 1011.998km
周期 104.763分钟 104.763分钟
每日圈数 13.745332 13.745258
详细信息
使用方式:
暂无
2D轨道图
3D轨道图
轨道高度分析图
轨道倾角分析图
轨道综合分析图
查看轨道综合分析图